This demonstration page uses our WeatherBlox Daily Observations layout. Learn more.

Left ArrowRight Arrow

41.86663, -103.66717

Hourly Observations for July 6, 2017

Temp ( °F °C ) Dew Point ( °F °C ) Humidity (%) Winds ( mph kmh ) Pressure ( in mb ) Visibility ( mi km ) Precip ( " mm )
12:53 am 00:53 Clear 73 22.8 52 11.1 48 48 Calm 29.97 1015 10 16 0.00 0.00
1:53 am 01:53 Clear 69 20.6 55 12.8 61 61 NE 3 6 29.97 1015 10 16 0.00 0.00
2:53 am 02:53 Clear 66 18.9 53 11.7 63 63 undefined N/A 29.97 1015 10 16 0.00 0.00
3:53 am 03:53 Clear 64 17.8 52 11.1 65 65 N 3 6 29.98 1015 10 16 0.00 0.00
4:53 am 04:53 Clear 62 16.7 51 10.6 67 67 Calm 29.99 1016 10 16 0.00 0.00
5:53 am 05:53 Sunny 63 17.2 50 10 63 63 NNW 3 6 30.02 1017 10 16 0.00 0.00
6:53 am 06:53 Sunny 68 20 54 12.2 61 61 Calm 30.02 1017 10 16 0.00 0.00
7:53 am 07:53 Sunny 76 24.4 52 11.1 43 43 W 3 6 30.02 1017 10 16 0.00 0.00
8:53 am 08:53 Sunny 81 27.2 51 10.6 35 35 SW 5 7 30.04 1017 10 16 0.00 0.00
9:53 am 09:53 Sunny 86 30 52 11.1 31 31 NW 7 11 30.04 1017 10 16 0.00 0.00
10:53 am 10:53 Sunny 89 31.7 53 11.7 29 29 WNW 7 11 30.03 1017 10 16 0.00 0.00
11:40 am 11:40 Sunny with Nearby Thunderstorms 91 33 46 8 21 21 NE 7 11 29.83 1010 10 16 0.00 0.00
11:55 am 11:55 Partly Cloudy with Nearby Thunderstorms 92 33.3 47 8.3 21 21 ENE 9 15 29.85 1011 N/A 0.00 0.00
12:10 pm 12:10 Sunny 93 34 48 9 21 21 ENE 10 17 29.83 1010 10 16 0.00 0.00
12:53 pm 12:53 Sunny 90 32.2 47 8.3 23 23 NE 8 13 30.05 1018 10 16 0.00 0.00
1:53 pm 13:53 Sunny 96 35.6 42 5.6 15 15 E 12 19 30.03 1017 10 16 0.00 0.00
2:53 pm 14:53 Sunny 99 37.2 40 4.4 13 13 NE 9 15 30.01 1016 10 16 0.00 0.00
3:53 pm 15:53 Sunny 99 37.2 40 4.4 13 13 NNE 7 11 30.01 1016 10 16 0.00 0.00
4:53 pm 16:53 Sunny 98 36.7 39 3.9 13 13 NE 7 11 30.00 1016 10 16 0.00 0.00
5:53 pm 17:53 Sunny 95 35 46 7.8 19 19 ENE 9 15 29.99 1016 10 16 0.00 0.00
6:53 pm 18:53 Sunny 91 32.8 50 10 25 25 ENE 8 13 29.98 1015 10 16 0.00 0.00
7:53 pm 19:53 Sunny 87 30.6 50 10 28 28 E 8 13 29.97 1015 10 16 0.00 0.00
8:53 pm 20:53 Clear 83 28.3 48 8.9 30 30 SE 12 19 30.01 1016 10 16 0.00 0.00
9:53 pm 21:53 Clear 79 26.1 49 9.4 35 35 NE 9 15 30.03 1017 10 16 0.00 0.00
10:53 pm 22:53 Cloudy with Light Rain 78 25.6 51 10.6 39 39 N 28 44 30.10 1019 10 16 0.00 0.03
11:40 pm 23:40 Partly Cloudy with Nearby Thunderstorms 77 25 51 10.6 40 40 NNE 30 48 29.97 1015 10 16 0.00 0.03
11:53 pm 23:53 Mostly Clear 75 23.9 52 11.1 45 45 NE 26 43 30.06 1018 10 16 0.00 0.03

Powered by AerisWeather